Preview of NWS' New Version of Forecast
This preview is not operational and should not be used for support decisions.

Regional Weather Roundup (RWR)

Issued by National Weather Service (NWS)

                            
000
ASUS44 KMEG 231510
RWRTN 
TENNESSEE HOURLY STATE WEATHER ROUNDUP
NATIONAL WEATHER SERVICE MEMPHIS TN
1000 AM CDT TUE APR 23 2019

TNZ002-004-019-021-049-052-054-088>092-231600-
WEST TENNESSEE
  
CITY           SKY/WX    TMP DP  RH WIND       PRES   REMARKS
MEMPHIS INTL   CLOUDY    67  57  70 SW6       30.10S                  
NWS MEMPHIS      N/A     68 N/A N/A MISG        N/A                   
JACKSON        FAIR      68  55  63 SW6       30.10F                  
DYERSBURG      FAIR      69  57  65 CALM      30.09                   
SOMERVILLE     SUNNY     70  57  64 S6        30.09S                  
COVINGTON      SUNNY     66  57  72 S8        30.08S                  
UNION CITY     SUNNY     68  54  60 SW8       30.06S                  
BOLIVAR        SUNNY     70  57  64 S5        30.10F                  
PARIS          SUNNY     68  54  60 SW6G14    30.08S                  
HUNTINGDON     SUNNY     68  54  60 SW8       30.09S                  
LEXINGTON        N/A     66  55  68 S5        30.11S                  
SELMER         SUNNY     68  55  64 SW5       30.12R                  
SAVANNAH       SUNNY     70  54  56 SW7       30.12S                  
$$

TNZ008-025-027-028-033-062-065-066-231600-
NORTH MIDDLE TENNESSEE
  
CITY           SKY/WX    TMP DP  RH WIND       PRES   REMARKS
NASHVILLE      PTSUNNY   76  48  37 W9        30.12R                  
DICKSON        SUNNY     70  50  49 SW8       30.11R                  
PORTLAND       SUNNY     73  50  43 W8G17     30.09S                  
CLARKSVILLE    FAIR      72  49  44 SW13G20   30.08S                  
LEBANON        SUNNY     72  52  49 W7        30.10S                  
SMYRNA         FAIR      74  56  53 SW8       30.13S                  
MURFREESBORO   SUNNY     72  52  49 SW7       30.11S                  
COOKEVILLE     SUNNY     70  54  56 SW7       30.14R                  
LIVINGSTON     SUNNY     68  52  56 SW8       30.12S                  
GALLATIN       SUNNY     72  54  53 VRB5      30.13S                  
CROSSVILLE     FAIR      68  48  48 W12G18    30.17R                  
ROCKWOOD       SUNNY     70  50  49 VRB8      30.15R                  
$$

TNZ061-075-076-078-094-096-097-231600-
SOUTH MIDDLE TENNESSEE
  
CITY           SKY/WX    TMP DP  RH WIND       PRES   REMARKS
LAWRENCEBURG   SUNNY     70  52  52 SW6       30.14S                  
LEWISBURG      SUNNY     72  52  49 W9        30.13R                  
FAYETTEVILLE   SUNNY     68  55  64 W3        30.15R                  
TULLAHOMA      SUNNY     72  52  49 SW7       30.14S                  
WINCHESTER     SUNNY     72  50  46 W8        30.15S                  
MCMINNVILLE    SUNNY     72  54  53 SW7       30.14R                  
COLUMBIA       SUNNY     72  52  49 SW8       30.11S                  
SHELBYVILLE    SUNNY     72  55  56 VRB3      30.13S                  
$$

TNZ017-018-042-046-047-231600-
NORTHEAST TENNESSEE
  
CITY           SKY/WX    TMP DP  RH WIND       PRES   REMARKS
TRI CITIES     FAIR      67  51  56 CALM      30.14F                  
ELIZABETHTON   FAIR      68  50  52 CALM      30.14F                  
GREENEVILLE    SUNNY     70  50  49 CALM      30.14S                  
$$

TNZ012-013-036-069-073-074-231600-
CENTRAL EAST TENNESSEE
  
CITY           SKY/WX    TMP DP  RH WIND       PRES   REMARKS
KNOXVILLE      PTSUNNY   69  54  58 SW6       30.13S                  
OAK RIDGE      FAIR      71  52  50 VRB5      30.14S                  
DOWNTOWN KNOXV SUNNY     70  54  56 CALM      30.14S                  
GATLINBURG     SUNNY     70  50  49 CALM      30.13S                  
MORRISTOWN     SUNNY     70  50  49 SW9       30.13S                  
JACKSBORO      SUNNY     68  54  60 CALM      30.16S                  
$$

TNZ083-085-099-231600-
SOUTHEAST TENNESSEE
  
CITY           SKY/WX    TMP DP  RH WIND       PRES   REMARKS
CHATTANOOGA    FAIR      71  51  49 CALM      30.15S                  
DAYTON         SUNNY     68  55  64 CALM      30.14S                  
$$

SKY/WX REPORTED AS FAIR MEANS FEW OR NO CLOUDS BELOW
12 THOUSAND FEET.